Location: Krasnoyarskiy Pitomnik
(51.1333°N, 71.6167°E)
Time: 21:48:16
(UTC+00:00)

A-11 Canister half - Pass Details

Date: 23 April 2024
Orbit: 1525 x 1683 km, 47.3° (Epoch: 19 May)

Event Time Altitude Azimuth Distance (km) Brightness Sun altitude
Rises 03:39:33 0° 268° (W) 4,909 11.2 32.6°
Reaches altitude 10° 03:42:41 10° 267° (W) 3,932 10.8 33.1°
Maximum altitude 03:52:45 72° 186° (S) 1,759 10.0 34.5°
Drops below altitude 10° 04:02:49 10° 105° (ESE) 3,928 12.4 35.9°
Sets 04:05:57 0° 104° (ESE) 4,903 12.6 36.3°
